#datint,netname,site,siteID,timestamp,IntT,BattV,AirT2,AirT,AirT_Avg,AirT_Max,AirT_Min,RH_Avg,RH_Max,RH_Min,EA_Avg,Td_Avg,Td_Max,Td_Min,WindS_Smp,WindS_Avg,WindD_Avg,WindD_SD,WindS_Max,ETo,ETr,SoilT4,SoilT8,SoilVWC8,SolarW_Avg,wetstate_Avg,wetT_Avg,Precip_accum,Precip_WPG,Precip_TB
15min,AgWx,beryljct,423,04MAY2019:00:00:00,46.0,12.99,41.0,41.5,42.2,44.2,40.7,73,79,66,0.669,34.2,35.0,33.1,3.398,3.3,225,6.4,4.4,0.00001,0.00003,54.8,54.2,10,0,0,41.2,14.08,0.00,0.00
15min,AgWx,beryljct,423,04MAY2019:00:15:00,44.9,12.98,43.2,41.9,40.9,41.9,40.0,79,83,76,0.682,34.8,35.7,34.0,2.696,3.0,224,5.2,4.3,-0.00002,-0.00001,54.6,54.2,10,0,0,39.8,14.08,0.00,0.00
15min,AgWx,beryljct,423,04MAY2019:00:30:00,44.1,12.96,42.8,43.4,43.1,43.9,42.0,68,75,62,0.608,33.3,34.8,31.7,3.836,3.3,205,9.1,4.4,0.00004,0.00006,54.4,54.2,10,0,0,40.7,14.09,0.00,0.00
15min,AgWx,beryljct,423,04MAY2019:00:45:00,43.6,12.95,42.4,42.3,41.8,43.3,41.2,73,76,64,0.627,33.6,34.7,31.6,3.858,3.1,214,7.0,3.9,0.00001,0.00003,54.2,54.2,10,0,0,40.4,14.09,0.00,0.00
15min,AgWx,beryljct,423,04MAY2019:01:00:00,43.2,12.96,38.9,37.3,40.1,43.1,36.4,75,87,65,0.619,32.6,33.9,31.8,2.521,3.3,139,86,5.0,0.00001,0.00003,54.1,54.1,10,0,0,39.4,14.09,0.00,0.00
15min,AgWx,beryljct,423,04MAY2019:01:15:00,42.2,12.95,40.2,38.2,37.8,39.2,37.0,77,81,74,0.591,31.3,32.2,30.9,4.341,3.3,308,13,4.7,-0.00001,0.00000,53.9,54.1,10,0,0,36.7,14.09,0.00,0.00
15min,AgWx,beryljct,423,04MAY2019:01:30:00,41.4,12.93,41.3,38.5,38.8,40.1,37.9,73,77,68,0.594,30.9,31.3,30.4,2.368,2.5,295,8.4,4.3,-0.00002,-0.00001,53.7,54.1,10,0,0,37.1,14.09,0.00,0.00
15min,AgWx,beryljct,423,04MAY2019:01:45:00,40.8,12.92,39.1,38.8,39.9,41.4,38.7,69,75,64,0.600,30.6,31.6,30.0,0,1.8,301,8.3,3.2,-0.00004,-0.00004,53.5,54.1,10,0,0,37.4,14.09,0.00,0.00
15min,AgWx,beryljct,423,04MAY2019:02:00:00,40.5,12.92,42.5,41.6,40.4,41.6,38.8,68,75,64,0.568,30.6,31.7,30.1,1.907,1.4,198,3.0,2.8,-0.00006,-0.00008,53.3,54.0,10,0,0,37.5,14.09,0.00,0.00
15min,AgWx,beryljct,423,04MAY2019:02:15:00,40.3,12.91,36.3,36.5,39.8,42.5,36.3,68,79,60,0.579,30.0,30.8,29.0,0,1.7,179,21,3.5,-0.00004,-0.00004,53.1,53.9,10,0,0,38.1,14.09,0.00,0.00
15min,AgWx,beryljct,423,04MAY2019:02:30:00,39.7,12.9,37.4,37.5,36.9,37.7,36.2,78,82,75,0.570,30.8,31.3,30.3,0,0.9,154,0.2,1.7,-0.00011,-0.00015,52.9,53.9,10,0,0,35.4,14.09,0.00,0.00
15min,AgWx,beryljct,423,04MAY2019:02:45:00,38.9,12.87,36.9,36.1,35.9,37.5,34.9,83,87,75,0.595,31.2,31.6,30.3,1.863,0.8,154,0.1,2.3,-0.00011,-0.00016,52.7,53.9,10,0,0,35.6,14.09,0.00,0.00
15min,AgWx,beryljct,423,04MAY2019:03:00:00,38.2,12.87,35.8,35.9,35.8,36.6,35.2,81,85,78,0.559,30.7,31.5,29.8,2.521,1.3,153,3.7,3.1,-0.00009,-0.00012,52.6,53.8,10,0,0,36.0,14.09,0.00,0.00
15min,AgWx,beryljct,423,04MAY2019:03:15:00,37.5,12.86,33.2,33.3,34.5,35.7,33.2,81,85,78,0.544,29.4,30.0,28.9,2.828,2.7,177,17,4.2,-0.00004,-0.00004,52.4,53.8,10,0,0,35.4,14.09,0.00,0.00
15min,AgWx,beryljct,423,04MAY2019:03:30:00,36.9,12.86,33.6,33.4,34.5,35.3,33.2,80,85,78,0.537,29.1,29.8,28.6,2.565,2.7,159,16,3.3,-0.00003,-0.00003,52.2,53.7,10,0,0,35.7,14.09,0.00,0.00
15min,AgWx,beryljct,423,04MAY2019:03:45:00,36.2,12.85,32.6,32.3,32.3,33.5,31.9,88,89,83,0.548,29.0,29.4,28.7,0.526,0.9,151,0.0,2.5,-0.00011,-0.00015,52.0,53.6,10,0,0,35.6,14.09,0.00,0.00
15min,AgWx,beryljct,423,04MAY2019:04:00:00,35.7,12.84,33.9,33.6,33.6,34.7,32.3,84,89,79,0.541,29.3,29.6,28.5,1.469,1.7,168,7.2,2.5,-0.00007,-0.00009,51.8,53.6,10,0,0,36.1,14.09,0.01,0.00
15min,AgWx,beryljct,423,04MAY2019:04:15:00,35.2,12.7,33.2,32.5,33.3,34.2,32.4,83,87,81,0.537,28.7,29.1,28.3,0.285,0.6,170,0.0,1.6,-0.00012,-0.00017,51.6,53.5,10,0,0,35.4,14.09,0.00,0.00
15min,AgWx,beryljct,423,04MAY2019:04:30:00,34.7,12.82,34.9,33.3,32.5,33.3,32.2,88,91,85,0.574,29.3,30.5,28.5,0,0.2,172,5.1,0.9,-0.00014,-0.00021,51.5,53.5,10,0,0,35.6,14.10,0.00,0.00
15min,AgWx,beryljct,423,04MAY2019:04:45:00,34.6,12.82,32.6,32.2,33.5,34.4,32.2,84,89,82,0.544,29.2,30.5,28.8,0.066,0.7,282,58,2.2,-0.00011,-0.00016,51.3,53.4,10,0,0,35.3,14.09,0.00,0.00
15min,AgWx,beryljct,423,04MAY2019:05:00:00,34.2,12.81,33.9,33.5,32.9,33.5,32.2,86,88,84,0.553,29.2,29.6,28.7,1.907,1.0,313,66,2.9,-0.00010,-0.00015,51.1,53.3,10,0,0,35.6,14.10,0.00,0.00
15min,AgWx,beryljct,423,04MAY2019:05:15:00,34.0,12.81,31.7,31.4,31.9,33.6,31.3,87,88,84,0.519,28.4,29.5,27.9,1.841,2.6,179,6.3,3.7,-0.00005,-0.00006,50.9,53.3,10,0,0,35.5,14.09,0.00,0.00
15min,AgWx,beryljct,423,04MAY2019:05:30:00,33.6,12.8,31.1,30.9,31.3,31.6,30.9,87,89,86,0.522,28.0,28.4,27.7,1.052,1.2,183,0.0,2.4,-0.00009,-0.00013,50.7,53.2,10,0,0,35.9,14.09,0.00,0.00
15min,AgWx,beryljct,423,04MAY2019:05:45:00,33.3,12.64,32.5,32.3,31.7,32.5,30.9,89,90,87,0.547,28.7,29.7,28.2,0.57,0.3,184,0.8,1.2,-0.00013,-0.00020,50.5,53.1,10,0,0,35.8,14.09,0.00,0.00
15min,AgWx,beryljct,423,04MAY2019:06:00:00,33.1,12.78,32.1,31.5,31.5,32.3,31.2,90,91,88,0.531,28.8,29.3,28.4,1.293,1.5,248,78,2.8,0.00003,0.00005,50.4,53.0,10,0,0,35.5,14.09,0.00,0.00
15min,AgWx,beryljct,423,04MAY2019:06:15:00,32.9,12.78,33.0,32.5,31.5,32.5,31.1,87,89,85,0.532,28.1,28.8,27.5,2.28,1.5,328,4.9,2.7,0.00004,0.00006,50.2,53.0,10,0,0,35.3,14.09,0.00,0.00
15min,AgWx,beryljct,423,04MAY2019:06:30:00,32.9,12.78,31.0,31.5,32.4,33.0,31.5,83,85,82,0.502,27.9,28.5,27.2,0.745,2.4,347,2.0,4.3,0.00008,0.00013,50.0,52.9,10,1,0,35.7,14.09,0.00,0.00
15min,AgWx,beryljct,423,04MAY2019:06:45:00,32.7,12.78,32.9,32.1,31.5,32.4,30.7,87,90,84,0.530,28.1,28.6,27.1,1.447,1.3,225,83,3.6,0.00006,0.00009,49.9,52.8,10,7,0,35.6,14.09,0.00,0.00
15min,AgWx,beryljct,423,04MAY2019:07:00:00,32.6,12.81,31.0,31.0,31.3,32.3,30.6,87,89,85,0.520,27.9,28.5,27.6,0.877,1.6,154,21,2.9,0.00016,0.00020,49.7,52.8,10,31,0,35.9,14.09,0.00,0.00
15min,AgWx,beryljct,423,04MAY2019:07:15:00,32.8,12.83,32.6,32.5,31.5,32.5,30.8,89,90,86,0.539,28.5,29.3,27.9,1.71,2.4,177,17,3.7,0.00030,0.00035,49.5,52.7,10,67,0,39.5,14.10,0.01,0.00
15min,AgWx,beryljct,423,04MAY2019:07:30:00,33.6,12.83,34.7,33.8,32.7,33.8,32.4,88,90,87,0.580,29.6,30.7,28.9,1.535,2.3,152,7.7,3.0,0.00041,0.00047,49.4,52.6,10,100,0,45.0,14.09,0.00,0.00
15min,AgWx,beryljct,423,04MAY2019:07:45:00,35.2,12.83,36.6,36.1,35.0,36.1,33.9,85,88,83,0.610,31.0,32.1,30.1,1.381,2.4,175,7.0,3.6,0.00061,0.00070,49.2,52.5,10,155,0,50.2,14.09,0.00,0.00
15min,AgWx,beryljct,423,04MAY2019:08:00:00,37.2,12.84,37.6,37.4,36.6,37.5,36.2,88,89,84,0.669,33.4,34.5,32.0,1.863,1.9,122,14,2.8,0.00083,0.00091,49.0,52.4,10,212,0,56.7,14.09,0.00,0.00
15min,AgWx,beryljct,423,04MAY2019:08:15:00,39.6,12.85,40.5,40.2,39.0,40.3,37.5,83,88,77,0.665,34.2,35.0,33.3,1.074,1.4,128,4.6,2.3,0.00106,0.00116,48.9,52.3,10,251,0,63.7,14.09,0.00,0.00
15min,AgWx,beryljct,423,04MAY2019:08:30:00,42.2,12.91,42.5,43.1,41.6,43.3,40.3,80,85,77,0.757,35.9,37.5,34.1,1.14,0.8,122,4.9,1.5,0.00135,0.00146,48.8,52.3,10,303,0,71.2,14.09,0.00,0.00
15min,AgWx,beryljct,423,04MAY2019:08:45:00,45.2,13.05,45.1,44.6,43.9,44.6,43.0,75,80,70,0.699,36.4,37.9,35.3,1.118,1.2,134,5.9,2.2,0.00165,0.00180,48.6,52.2,10,354,0,74.9,14.09,0.00,0.00
15min,AgWx,beryljct,423,04MAY2019:09:00:00,48.0,13.22,47.2,46.9,45.9,46.9,44.6,72,75,68,0.792,37.3,39.3,35.4,1.973,1.4,130,14,2.8,0.00196,0.00215,48.5,52.1,10,406,18,81.5,14.08,0.00,0.00
15min,AgWx,beryljct,423,04MAY2019:09:15:00,50.6,13.54,49.1,48.8,48.1,49.1,47.0,66,74,59,0.702,37.1,39.7,34.7,1.337,1.8,140,13,3.1,0.00230,0.00255,48.4,52.0,10,458,0,79.8,14.08,0.00,0.00
15min,AgWx,beryljct,423,04MAY2019:09:30:00,53.1,14.17,51.1,50.7,49.8,50.7,48.8,62,69,57,0.721,37.2,40.0,35.6,0.548,1.5,106,17,2.7,0.00266,0.00294,48.3,51.9,10,516,0,82.5,14.08,0.00,0.00
15min,AgWx,beryljct,423,04MAY2019:09:45:00,55.6,14.37,53.3,52.7,51.6,52.7,50.8,59,62,53,0.844,37.6,40.2,34.7,1.14,0.8,93,19,1.8,0.00295,0.00321,48.3,51.9,10,554,0,86.9,14.08,0.00,0.00
15min,AgWx,beryljct,423,04MAY2019:10:00:00,58.1,14.28,55.0,54.4,53.3,54.4,52.2,58,63,55,0.803,39.0,40.7,37.4,0.11,0.7,73,16,2.2,0.00330,0.00357,48.2,51.8,10,603,0,90.6,14.08,0.00,0.00
15min,AgWx,beryljct,423,04MAY2019:10:15:00,60.4,14.26,57.8,56.6,55.3,56.6,54.5,51,58,45,0.699,37.4,40.7,34.6,2.521,1.9,32,15,3.3,0.00366,0.00406,48.2,51.8,10,649,0,88.8,14.07,0.00,0.00
15min,AgWx,beryljct,423,04MAY2019:10:30:00,62.4,14.3,57.6,58.2,57.2,58.2,56.3,47,54,41,0.741,37.1,40.1,33.9,1.644,2.3,39,19,4.5,0.00402,0.00451,48.2,51.7,10,693,0,88.2,14.07,0.00,0.00
15min,AgWx,beryljct,423,04MAY2019:10:45:00,64.2,14.24,59.7,59.6,59.0,60.3,57.9,44,52,38,0.806,37.1,42.7,33.4,3.573,2.2,41,24,4.6,0.00435,0.00487,48.2,51.6,10,734,0,91.1,14.06,0.00,0.00
15min,AgWx,beryljct,423,04MAY2019:11:00:00,66.0,14.17,60.2,60.5,60.1,60.9,59.2,42,47,35,0.695,36.9,39.9,32.3,1.71,1.5,82,20,3.4,0.00463,0.00512,48.3,51.5,10,774,0,96.6,14.07,0.00,0.00
15min,AgWx,beryljct,423,04MAY2019:11:15:00,67.6,14.21,61.9,61.7,61.3,63.0,60.4,39,44,32,0.730,36.3,39.1,32.5,2.565,1.4,89,20,3.5,0.00491,0.00540,48.3,51.5,10,810,0,99.5,14.06,0.00,0.00
15min,AgWx,beryljct,423,04MAY2019:11:30:00,69.1,14.12,62.2,63.0,62.4,63.4,61.3,39,45,34,0.791,36.9,41.6,33.9,1.052,1.1,80,35,2.7,0.00517,0.00565,48.5,51.4,10,843,0,102.3,14.06,0.00,0.00
15min,AgWx,beryljct,423,04MAY2019:11:45:00,70.5,14.11,63.6,64.0,63.4,64.2,63.0,43,51,37,0.994,40.3,45.8,36.3,3.157,1.7,68,24,3.7,0.00534,0.00589,48.6,51.3,10,857,0,101.5,14.05,0.00,0.00
15min,AgWx,beryljct,423,04MAY2019:12:00:00,71.5,13.77,64.6,64.8,64.5,65.0,63.8,42,49,36,0.879,41.0,44.9,36.6,4.319,2.6,108,24,5.1,0.00568,0.00635,48.8,51.3,10,905,0,98.8,14.05,0.00,0.00
15min,AgWx,beryljct,423,04MAY2019:12:15:00,72.1,13.65,69.5,67.8,65.8,67.8,64.6,39,47,30,0.726,39.8,45.3,34.4,0,2.9,94,19,5.1,0.00590,0.00665,49.1,51.3,10,923,0,97.9,14.05,0.00,0.00
15min,AgWx,beryljct,423,04MAY2019:12:30:00,73.0,13.64,68.5,68.1,67.5,68.3,67.0,33,43,24,0.850,36.9,44.1,29.3,1.425,1.9,87,27,4.2,0.00617,0.00685,49.3,51.2,10,955,0,102.6,14.04,0.00,0.00
15min,AgWx,beryljct,423,04MAY2019:12:45:00,74.2,13.59,67.5,68.0,68.0,68.3,67.6,32,38,24,0.714,36.8,41.0,30.2,8.37,3.4,61,23,8.4,0.00639,0.00728,49.6,51.2,10,977,0,99.8,14.04,0.00,0.00
15min,AgWx,beryljct,423,04MAY2019:13:00:00,74.6,13.62,68.5,68.4,68.3,69.5,65.7,26,41,20,0.675,32.1,41.3,25.9,5.656,4.6,7.3,27,7.4,0.00460,0.00559,49.9,51.2,10,619,0,84.9,14.04,0.00,0.00
15min,AgWx,beryljct,423,04MAY2019:13:15:00,74.2,13.62,70.4,70.6,69.0,71.1,67.5,30,43,22,0.604,36.3,44.5,29.5,8.29,5.2,180,60,13.4,0.00623,0.00736,50.2,51.2,10,916,0,91.0,14.04,0.01,0.00
15min,AgWx,beryljct,423,04MAY2019:13:30:00,74.1,13.63,69.0,70.0,69.8,71.0,68.6,29,37,22,0.603,36.0,41.8,29.9,8.57,9.2,172,35,19.1,0.00716,0.00883,50.6,51.2,10,1032,0,89.4,14.04,0.00,0.00
15min,AgWx,beryljct,423,04MAY2019:13:45:00,73.9,13.62,70.8,71.0,69.8,71.2,68.8,26,34,21,0.600,33.1,39.6,28.2,19.6,8.9,194,28,21.1,0.00606,0.00768,51.0,51.2,10,817,0,84.3,14.04,0.01,0.00
15min,AgWx,beryljct,423,04MAY2019:14:00:00,74.1,13.63,72.4,72.5,71.0,72.8,70.0,23,31,20,0.644,31.6,38.8,27.4,15.04,10.2,200,21,18.3,0.00743,0.00936,51.4,51.3,10,1031,0,88.4,14.04,0.00,0.00
15min,AgWx,beryljct,423,04MAY2019:14:15:00,74.6,13.64,70.7,70.8,70.5,72.5,69.0,26,33,20,0.689,33.7,39.6,28.5,12.61,10.2,176,26,17.1,0.00727,0.00913,51.8,51.3,10,1019,0,87.7,14.04,0.00,0.00
15min,AgWx,beryljct,423,04MAY2019:14:30:00,74.3,13.64,68.6,68.8,69.1,70.8,67.3,29,40,19,0.708,35.1,43.0,26.2,14.05,11.2,158,25,17.7,0.00652,0.00834,52.3,51.4,10,915,0,82.4,14.04,0.00,0.00
15min,AgWx,beryljct,423,04MAY2019:14:45:00,74.0,13.61,72.1,71.2,69.2,71.2,68.5,31,36,23,0.652,36.8,40.7,30.2,10.5,10.8,158,20,17.9,0.00673,0.00850,52.7,51.5,10,960,0,83.1,14.04,0.00,0.00
15min,AgWx,beryljct,423,04MAY2019:15:00:00,74.5,13.68,71.1,71.4,71.0,71.9,69.9,25,31,19,0.618,33.1,38.3,27.3,10.59,11.2,182,22,19.0,0.00730,0.00929,53.2,51.6,10,1007,0,86.1,14.04,0.00,0.00
15min,AgWx,beryljct,423,04MAY2019:15:15:00,74.6,13.6,70.0,69.1,70.6,72.2,69.0,24,30,20,0.674,31.7,36.1,27.6,8.05,8.7,179,19,16.2,0.00516,0.00676,53.7,51.7,10,643,0,79.9,14.04,0.00,0.00
15min,AgWx,beryljct,423,04MAY2019:15:30:00,74.9,13.59,71.2,71.1,71.1,72.7,69.3,25,31,19,0.650,33.1,37.4,28.4,11.4,11.8,185,24,21.9,0.00719,0.00924,54.2,51.8,10,977,0,84.7,14.04,0.00,0.00
15min,AgWx,beryljct,423,04MAY2019:15:45:00,75.6,13.55,69.8,70.2,71.5,73.1,70.2,24,30,19,0.532,32.5,37.6,26.6,8.92,9.0,209,18,18.5,0.00591,0.00761,54.7,51.9,10,777,0,85.5,14.04,0.00,0.00
15min,AgWx,beryljct,423,04MAY2019:16:00:00,75.9,13.54,72.0,72.3,71.7,72.7,70.1,22,27,18,0.658,30.7,35.4,26.0,15.24,8.2,194,16,18.1,0.00631,0.00795,55.1,52.1,10,864,0,85.7,14.04,0.00,0.00
15min,AgWx,beryljct,423,04MAY2019:16:15:00,76.2,13.49,72.3,72.0,71.6,72.2,70.9,25,30,21,0.593,33.7,38.3,29.9,10.74,9.7,205,21,17.7,0.00590,0.00766,55.6,52.2,10,776,0,83.2,14.04,0.00,0.00
15min,AgWx,beryljct,423,04MAY2019:16:30:00,76.6,13.51,71.5,71.4,71.9,72.9,70.6,23,27,20,0.703,32.4,35.7,27.9,9.34,10.3,206,14,16.3,0.00603,0.00790,56.0,52.3,10,780,0,82.3,14.04,0.00,0.00
15min,AgWx,beryljct,423,04MAY2019:16:45:00,76.6,13.5,70.8,71.2,71.7,72.4,71.2,23,28,20,0.654,32.0,36.5,28.5,6.949,9.3,201,16,14.3,0.00554,0.00727,56.4,52.5,10,715,0,81.3,14.04,0.00,0.00
15min,AgWx,beryljct,423,04MAY2019:17:00:00,76.6,13.57,72.0,71.8,71.4,72.1,70.6,23,29,20,0.547,31.4,37.2,27.3,12.78,9.9,193,24,15.0,0.00520,0.00697,56.8,52.7,10,650,0,79.4,14.04,0.00,0.00
15min,AgWx,beryljct,423,04MAY2019:17:15:00,76.3,13.52,69.6,70.0,71.3,72.1,70.0,22,28,19,0.707,30.5,35.7,26.8,8.62,10.9,203,17,17.7,0.00513,0.00703,57.1,52.8,10,618,0,77.6,14.05,0.00,0.00
15min,AgWx,beryljct,423,04MAY2019:17:30:00,75.9,13.55,69.6,70.5,71.0,71.7,70.0,22,28,17,0.594,29.6,35.5,24.6,10.72,9.2,202,15,14.1,0.00462,0.00629,57.4,53.0,10,569,0,77.3,14.05,0.00,0.00
15min,AgWx,beryljct,423,04MAY2019:17:45:00,75.4,13.53,70.5,70.5,70.9,71.8,70.2,23,26,20,0.568,31.2,33.9,27.8,9.32,9.4,199,12,13.4,0.00434,0.00599,57.7,53.2,10,522,0,76.1,14.04,0.00,0.00
15min,AgWx,beryljct,423,04MAY2019:18:00:00,75.0,13.54,70.4,70.8,70.4,71.0,69.6,23,30,20,0.564,31.2,37.1,27.2,6.467,8.5,196,20,16.3,0.00392,0.00543,57.9,53.3,10,474,0,75.0,14.05,0.00,0.00
15min,AgWx,beryljct,423,04MAY2019:18:15:00,74.6,13.6,69.2,68.8,70.0,70.8,68.8,25,31,21,0.743,32.3,36.9,28.8,6.62,8.4,204,16,12.5,0.00354,0.00499,58.1,53.4,10,422,0,73.9,14.05,0.00,0.00
15min,AgWx,beryljct,423,04MAY2019:18:30:00,73.7,13.59,70.0,69.5,69.3,70.3,68.3,25,33,21,0.575,32.2,38.0,28.4,8.26,8.7,204,21,12.8,0.00322,0.00465,58.2,53.6,10,369,0,72.3,14.05,0.00,0.00
15min,AgWx,beryljct,423,04MAY2019:18:45:00,73.1,13.59,69.0,69.6,69.6,70.3,68.7,24,28,21,0.541,30.7,34.5,28.0,11.73,8.5,195,12,13.4,0.00291,0.00433,58.4,53.7,10,316,0,71.3,14.05,0.00,0.00
15min,AgWx,beryljct,423,04MAY2019:19:00:00,72.6,13.29,69.5,69.6,69.6,70.1,69.0,22,28,19,0.529,29.1,34.5,25.5,6.73,7.4,181,11,13.6,0.00247,0.00376,58.5,53.9,10,263,0,70.0,14.05,0.00,0.00
15min,AgWx,beryljct,423,04MAY2019:19:15:00,71.9,13.19,67.5,67.8,68.9,69.7,67.7,23,26,21,0.590,29.3,32.0,27.5,8,10.2,190,9.6,15.0,0.00255,0.00414,58.5,54.0,10,212,0,68.7,14.05,0.00,0.00
15min,AgWx,beryljct,423,04MAY2019:19:30:00,70.9,13.18,67.4,67.2,68.0,68.7,66.9,23,27,21,0.580,29.3,32.2,26.9,9.1,9.9,190,8.1,14.1,0.00219,0.00369,58.6,54.1,10,165,0,67.6,14.05,0.00,0.00
15min,AgWx,beryljct,423,04MAY2019:19:45:00,69.8,13.15,65.3,65.7,66.8,67.8,65.7,25,29,22,0.619,30.2,32.3,27.9,5.349,8.7,192,7.1,12.6,0.00107,0.00138,58.6,54.2,10,120,0,66.3,14.05,0.00,0.00
15min,AgWx,beryljct,423,04MAY2019:20:00:00,68.2,13.14,61.1,62.3,63.9,65.6,62.3,32,35,28,0.677,33.6,35.1,31.2,5.305,6.3,204,7.4,9.4,0.00067,0.00091,58.5,54.4,10,73,0,62.7,14.05,0.00,0.00
15min,AgWx,beryljct,423,04MAY2019:20:15:00,65.9,13.11,59.3,60.8,61.8,62.7,60.8,34,36,32,0.657,33.4,34.7,31.9,5.086,5.7,202,4.9,7.3,0.00046,0.00064,58.4,54.5,10,19,0,59.6,14.06,0.00,0.00
15min,AgWx,beryljct,423,04MAY2019:20:30:00,63.4,13.08,58.3,58.2,59.0,60.7,57.9,38,41,35,0.649,33.7,35.0,32.3,5.437,5.1,206,5.2,7.9,0.00032,0.00047,58.4,54.6,10,6,0,57.0,14.06,0.00,0.00
15min,AgWx,beryljct,423,04MAY2019:20:45:00,61.2,13.08,57.2,56.6,57.0,58.2,55.6,41,45,39,0.641,33.7,34.9,32.9,4.998,5.1,210,4.7,6.5,0.00027,0.00040,58.3,54.6,10,1,0,54.8,14.06,0.00,0.00
15min,AgWx,beryljct,423,04MAY2019:21:00:00,59.3,13.06,56.9,55.9,56.7,57.6,55.8,41,43,37,0.637,33.0,34.0,31.5,5.722,4.9,208,4.6,6.1,0.00026,0.00038,58.2,54.7,10,0,0,54.2,14.07,0.00,0.00
15min,AgWx,beryljct,423,04MAY2019:21:15:00,57.8,13.06,54.7,55.1,55.6,56.2,55.0,42,44,40,0.640,32.9,33.8,32.3,1.491,4.3,216,3.9,5.7,0.00020,0.00030,58.0,54.8,10,0,0,53.3,14.07,0.00,0.00
15min,AgWx,beryljct,423,04MAY2019:21:30:00,56.9,13.05,52.8,56.8,56.5,59.3,53.9,38,46,32,0.604,31.1,34.2,29.0,2.302,5.4,351,33,9.8,0.00032,0.00046,57.9,54.8,10,0,0,54.4,14.07,0.00,0.00
15min,AgWx,beryljct,423,04MAY2019:21:45:00,56.6,13.04,55.1,56.4,57.6,59.7,55.9,37,41,33,0.616,31.5,32.5,30.3,3.069,3.6,298,37,7.3,0.00016,0.00027,57.7,54.9,10,0,0,54.7,14.07,0.00,0.00
15min,AgWx,beryljct,423,04MAY2019:22:00:00,56.3,13.01,52.1,54.2,56.4,58.0,54.2,42,49,40,0.707,33.5,35.6,32.3,1.644,4.6,9.6,25,8.3,0.00023,0.00034,57.6,54.9,10,0,0,54.1,14.07,0.00,0.00
15min,AgWx,beryljct,423,04MAY2019:22:15:00,55.4,13.01,51.5,51.8,51.5,54.1,50.3,57,62,50,0.721,36.9,37.9,35.8,0.811,1.7,222,52,2.8,-0.00013,-0.00016,57.4,55.0,10,0,0,49.1,14.07,0.00,0.00
15min,AgWx,beryljct,423,04MAY2019:22:30:00,54.1,13.01,55.4,54.6,53.0,54.6,51.7,52,55,48,0.697,35.8,36.4,35.3,0.482,1.0,253,34,2.6,-0.00020,-0.00027,57.2,55.0,10,0,0,48.6,14.07,0.00,0.00
15min,AgWx,beryljct,423,04MAY2019:22:45:00,53.1,13,46.6,49.8,53.3,54.9,49.8,51,61,47,0.745,35.7,37.0,35.1,1.03,0.9,12,30,2.8,-0.00022,-0.00031,57.0,55.0,10,0,0,49.2,14.07,0.00,0.00
15min,AgWx,beryljct,423,04MAY2019:23:00:00,52.0,13,53.8,52.7,50.7,52.7,47.8,58,67,52,0.709,36.2,37.6,35.3,2.609,1.9,282,13,3.4,-0.00011,-0.00012,56.9,55.1,10,0,0,47.4,14.07,0.00,0.00
15min,AgWx,beryljct,423,04MAY2019:23:15:00,51.4,12.98,47.0,48.2,51.4,53.4,48.2,55,63,50,0.719,35.6,36.1,35.3,4.187,3.6,300,7.8,5.5,0.00005,0.00010,56.7,55.0,10,0,0,48.8,14.08,0.00,0.00
15min,AgWx,beryljct,423,04MAY2019:23:30:00,50.6,12.98,47.7,47.1,48.2,49.6,46.5,62,67,59,0.726,35.9,36.4,35.5,4.341,4.5,304,6.1,6.3,0.00006,0.00010,56.5,55.1,10,0,0,47.0,14.08,0.00,0.00
15min,AgWx,beryljct,423,04MAY2019:23:45:00,49.6,12.98,45.7,46.0,46.4,47.1,45.7,70,76,65,0.775,37.2,39.2,36.1,0,1.9,261,49,3.9,-0.00013,-0.00016,56.3,55.0,10,0,0,44.1,14.08,0.01,0.00
15min,AgWx,beryljct,423,05MAY2019:00:00:00,48.6,12.97,47.2,46.3,47.1,49.2,45.5,69,80,63,0.793,37.5,39.7,36.7,0,0.7,238,8.1,2.4,-0.00024,-0.00035,56.1,55.1,10,0,0,44.0,14.08,0.00,0.00
15min,AgWx,beryljct,423,05MAY2019:00:15:00,47.7,12.95,41.1,42.9,45.4,48.7,42.9,71,78,62,0.725,36.7,38.5,35.9,2.477,1.5,242,19,2.6,-0.00017,-0.00022,55.9,55.0,10,0,0,43.5,14.09,0.00,0.00
15min,AgWx,beryljct,423,05MAY2019:00:30:00,46.8,12.95,42.6,43.0,42.7,44.4,41.6,73,78,70,0.676,34.6,36.5,33.7,4.735,4.6,316,5.3,5.9,-0.00001,0.00001,55.7,55.0,10,0,0,41.6,14.09,0.00,0.00
15min,AgWx,bigpiney,439,04MAY2019:00:00:00,36.9,12.72,31.5,31.0,30.9,31.6,30.5,70,73,67,0.421,22.4,23.0,21.5,4.516,3.8,187,25,6.3,-0.00003,-0.00002,41.3,35.9,54,0,0,0.0,1.40,0.00,0.00
15min,AgWx,bigpiney,439,04MAY2019:00:15:00,36.1,12.73,30.0,30.1,30.4,31.1,29.8,74,76,72,0.426,23.1,23.4,22.8,4.253,4.4,216,5.6,5.5,-0.00003,-0.00002,41.2,35.9,54,0,0,0.0,1.40,0.00,0.00
15min,AgWx,bigpiney,439,04MAY2019:00:30:00,35.4,12.72,30.6,29.9,29.2,30.0,28.6,79,82,76,0.453,23.6,24.9,22.8,0,2.6,243,30,5.1,-0.00009,-0.00011,41.0,35.9,54,0,0,0.0,1.40,0.00,0.00
15min,AgWx,bigpiney,439,04MAY2019:00:45:00,34.6,12.71,29.7,29.3,29.5,30.3,29.0,80,83,78,0.431,24.1,24.7,23.2,3.091,1.9,243,17,3.7,-0.00013,-0.00016,40.9,35.9,54,0,0,0.0,1.40,0.00,0.00
15min,AgWx,bigpiney,439,04MAY2019:01:00:00,34.1,12.68,30.9,30.7,30.6,31.3,29.2,72,79,68,0.415,22.7,23.6,21.9,3.464,2.6,282,13,3.8,-0.00008,-0.00009,40.8,35.8,54,0,0,0.0,1.40,0.00,0.00
15min,AgWx,bigpiney,439,04MAY2019:01:15:00,33.6,12.68,31.1,30.7,30.6,30.8,30.3,73,75,71,0.430,22.8,23.6,22.2,1.754,3.7,276,13,4.6,-0.00004,-0.00004,40.6,35.9,54,0,0,0.0,1.40,0.00,0.00
15min,AgWx,bigpiney,439,04MAY2019:01:30:00,33.4,12.67,30.0,31.0,31.1,31.5,30.7,72,75,68,0.401,23.0,23.8,21.8,3.486,0.6,213,49,3.5,-0.00020,-0.00029,40.5,36.0,54,0,0,0.0,1.40,0.00,0.00
15min,AgWx,bigpiney,439,04MAY2019:01:45:00,32.9,12.66,25.3,25.7,27.4,31.0,25.7,74,78,68,0.356,20.3,21.8,19.0,3.025,3.1,171,23,5.6,-0.00006,-0.00006,40.3,36.0,54,0,0,0.0,1.40,0.00,0.00
15min,AgWx,bigpiney,439,04MAY2019:02:00:00,32.3,12.65,27.9,27.2,27.2,28.3,25.6,76,80,74,0.403,20.6,22.0,19.0,2.28,1.3,88,52,3.1,-0.00014,-0.00018,40.2,35.9,54,0,0,0.0,1.40,0.00,0.00
15min,AgWx,bigpiney,439,04MAY2019:02:15:00,31.6,12.64,23.1,23.4,26.2,28.0,23.4,79,81,77,0.343,20.5,22.4,18.0,3.047,2.3,131,35,4.1,-0.00010,-0.00011,40.0,36.0,54,0,0,0.0,1.40,0.00,0.00
15min,AgWx,bigpiney,439,04MAY2019:02:30:00,30.9,12.64,24.5,23.8,23.6,24.0,23.0,84,85,80,0.372,19.5,20.1,18.2,3.201,2.8,205,12,3.7,-0.00009,-0.00010,39.9,35.9,54,0,0,0.0,1.40,0.00,0.00
15min,AgWx,bigpiney,439,04MAY2019:02:45:00,30.2,12.63,26.2,25.8,25.2,26.0,23.9,88,89,86,0.420,22.0,23.1,20.1,2.455,2.2,236,15,3.5,-0.00011,-0.00014,39.7,36.0,54,0,0,0.0,1.40,0.00,0.00
15min,AgWx,bigpiney,439,04MAY2019:03:00:00,29.7,12.63,27.3,25.9,25.2,25.9,24.5,89,90,87,0.412,22.3,22.9,21.3,4.253,2.2,251,29,4.4,-0.00012,-0.00015,39.6,36.0,54,0,0,0.0,1.40,0.00,0.00
15min,AgWx,bigpiney,439,04MAY2019:03:15:00,29.4,12.61,28.3,27.6,26.8,27.6,26.0,82,87,77,0.395,21.9,22.6,21.3,2.85,2.3,290,13,3.9,-0.00010,-0.00012,39.4,36.0,54,0,0,0.0,1.40,0.00,0.00
15min,AgWx,bigpiney,439,04MAY2019:03:30:00,29.3,12.61,26.9,26.7,26.9,27.6,26.3,79,82,77,0.398,21.3,21.8,21.0,3.244,3.0,284,8.1,3.8,-0.00008,-0.00009,39.3,35.9,54,0,0,0.0,1.40,0.00,0.00
15min,AgWx,bigpiney,439,04MAY2019:03:45:00,29.2,12.6,27.5,27.0,26.9,27.1,26.6,81,81,80,0.399,21.7,21.9,21.4,1.907,2.4,272,7.4,3.8,-0.00010,-0.00012,39.1,35.9,54,0,0,0.0,1.40,0.00,0.00
15min,AgWx,bigpiney,439,04MAY2019:04:00:00,29.1,12.58,26.4,27.1,27.4,28.0,27.0,79,81,77,0.403,21.9,22.6,21.4,0,1.3,255,28,2.4,-0.00014,-0.00019,39.0,35.9,54,0,0,0.0,1.40,0.00,0.00
15min,AgWx,bigpiney,439,04MAY2019:04:15:00,29.0,12.57,26.2,26.0,26.9,27.9,26.0,79,82,73,0.377,21.1,22.2,19.3,0.745,1.2,171,52,3.5,-0.00015,-0.00020,38.8,35.9,54,0,0,0.0,1.40,0.00,0.00
15min,AgWx,bigpiney,439,04MAY2019:04:30:00,28.8,12.56,27.8,26.6,26.8,27.4,26.0,78,81,75,0.378,20.7,21.7,20.0,0,1.0,176,33,2.4,-0.00015,-0.00021,38.7,35.9,54,0,0,0.0,1.40,0.00,0.00
15min,AgWx,bigpiney,439,04MAY2019:04:45:00,28.5,12.56,26.0,25.6,26.0,27.5,25.3,81,85,75,0.397,21.0,21.6,20.4,0.745,0.5,286,26,2.3,-0.00018,-0.00027,38.6,35.9,54,0,0,0.0,1.40,0.00,0.00
15min,AgWx,bigpiney,439,04MAY2019:05:00:00,28.2,12.55,25.1,24.7,25.7,26.2,24.7,84,86,82,0.387,21.5,22.3,20.9,0.745,1.3,332,14,2.6,-0.00014,-0.00019,38.4,35.8,54,0,0,0.0,1.40,0.00,0.00
15min,AgWx,bigpiney,439,04MAY2019:05:15:00,27.9,12.52,24.6,24.2,24.3,24.9,23.7,87,88,85,0.382,20.8,21.3,20.2,0.175,1.9,307,22,2.9,-0.00012,-0.00015,38.3,35.8,54,0,0,0.0,1.40,0.00,0.00
15min,AgWx,bigpiney,439,04MAY2019:05:30:00,27.6,12.52,25.0,24.6,24.7,25.2,24.2,86,86,83,0.376,21.0,21.5,20.3,0.68,1.3,274,27,2.8,-0.00014,-0.00019,38.1,35.7,54,0,0,0.0,1.40,0.00,0.00
15min,AgWx,bigpiney,439,04MAY2019:05:45:00,27.3,12.52,23.5,23.8,24.4,24.8,23.6,83,84,82,0.368,19.9,20.5,19.3,0.526,1.2,325,72,3.2,-0.00014,-0.00019,38.0,35.8,54,0,0,0.0,1.40,0.00,0.00
15min,AgWx,bigpiney,439,04MAY2019:06:00:00,27.0,12.51,25.0,24.4,24.0,24.5,23.3,85,87,83,0.378,20.2,21.0,19.1,1.71,0.5,332,31,1.7,-0.00018,-0.00027,37.8,35.6,54,0,0,0.0,1.40,0.00,0.00
15min,AgWx,bigpiney,439,04MAY2019:06:15:00,26.6,12.5,24.0,24.3,24.3,24.6,24.1,83,85,82,0.375,20.0,20.4,19.6,0.811,0.4,333,29,1.8,-0.00018,-0.00026,37.7,35.7,54,4,0,0.0,1.40,0.00,0.00
15min,AgWx,bigpiney,439,04MAY2019:06:30:00,26.4,12.51,25.8,24.8,23.8,24.8,22.4,86,88,84,0.383,20.1,20.9,18.6,2.543,2.0,199,19,2.8,-0.00024,-0.00023,37.6,35.6,54,16,0,0.0,1.40,0.00,0.00
15min,AgWx,bigpiney,439,04MAY2019:06:45:00,26.4,12.53,24.4,24.1,24.7,25.4,24.0,83,85,82,0.376,20.4,21.0,19.8,1.271,2.1,217,11,3.0,-0.00014,-0.00012,37.5,35.7,54,44,0,0.0,1.40,0.00,0.00